Location: Omaha
(41.2590°N, 95.9380°W)
Time: 20:36:07
(UTC-06:00)

Tiangong 2 - Pass Details

Date: 08 October 2017
Orbit: 386 x 390 km, 42.8° (Epoch: 16 December)

Event Time Altitude Azimuth Distance (km) Brightness Sun altitude
Exits shadow 06:22:03 13° 214° (SW) 1,263 3.3 -13.2°
Maximum altitude 06:24:31 32° 153° (SSE) 700 2.6 -12.8°
Drops below altitude 10° 06:27:26 10° 88° (E) 1,426 5.5 -12.2°
Sets 06:29:38 0° 78° (ENE) 2,285 6.9 -11.8°
